CW5575 Weather Reports


Display with metric or nautical units.
time (UTC)temp
F
wind
direction
speed
MPH
gust
MPH
rain 1hr
in
rain 24hr
in
rain mn
in
humidity
%
barometer
mb
20211023021322 71 167 0.0 1.0 0.00 0.00 0.00 74 1013.1
20211023020826 71 167 0.0 0.0 0.00 0.00 0.00 74 1013.1
20211023020336 71 167 0.0 0.0 0.00 0.00 0.00 74 1013.2
20211023015844 71 167 0.0 2.0 0.00 0.00 0.00 74 1013.2
20211023015347 72 167 0.0 0.0 0.00 0.00 0.00 73 1013.2
20211023014839 72 167 0.0 0.0 0.00 0.00 0.00 73 1013.2
20211023014338 72 167 0.0 0.0 0.00 0.00 0.00 73 1013.2
20211023013846 72 167 0.0 1.0 0.00 0.00 0.00 72 1013.2
20211023013354 72 167 0.0 0.0 0.00 0.00 0.00 72 1013.2
20211023012845 72 167 0.0 1.0 0.00 0.00 0.00 72 1013.3
20211023012350 72 167 0.0 0.0 0.00 0.00 0.00 72 1013.3
20211023011856 73 167 0.0 0.0 0.00 0.00 0.00 72 1013.2
20211023011406 73 167 0.0 0.0 0.00 0.00 0.00 71 1013.2
20211023010901 73 167 0.0 0.0 0.00 0.00 0.00 71 1013.3
20211023010359 73 167 0.0 0.0 0.00 0.00 0.00 71 1013.2
20211023005857 74 167 0.0 0.0 0.00 0.00 0.00 70 1013.2
20211023005341 74 167 0.0 0.0 0.00 0.00 0.00 70 1013.2
20211023004843 74 167 0.0 0.0 0.00 0.00 0.00 70 1013.2
20211023004345 74 167 0.0 0.0 0.00 0.00 0.00 69 1013.2
20211023003846 75 167 0.0 0.0 0.00 0.00 0.00 68 1013.2
20211023003353 75 167 0.0 0.0 0.00 0.00 0.00 68 1013.2
20211023002835 76 167 0.0 0.0 0.00 0.00 0.00 67 1013.2
20211023002332 76 167 0.0 0.0 0.00 0.00 0.00 66 1013.2
20211023001837 76 171 0.0 0.0 0.00 0.00 0.00 66 1013.1
20211023001339 77 170 0.0 0.0 0.00 0.00 0.00 65 1013.1
20211023000829 77 168 0.0 0.0 0.00 0.00 0.00 64 1013.1
20211022235728 78 162 0.0 0.0 0.00 0.00 0.00 62 1013.1
20211022235233 79 162 0.0 0.0 0.00 0.00 0.00 62 1013.1
20211022234736 79 162 0.0 0.0 0.00 0.00 0.00 61 1013.2
20211022234242 80 175 0.0 0.0 0.00 0.00 0.00 60 1013.1
20211022233730 81 172 0.0 0.0 0.00 0.00 0.00 60 1013.1
20211022233237 81 165 0.0 0.0 0.00 0.00 0.00 59 1013.2
20211022232745 82 163 0.0 0.0 0.00 0.00 0.00 58 1013.2
20211022232248 82 163 0.0 0.0 0.00 0.00 0.00 58 1013.2
20211022231729 82 162 0.0 4.0 0.00 0.00 0.00 56 1013.3
20211022231215 83 162 0.0 4.0 0.00 0.00 0.00 56 1013.2
20211022230658 83 162 0.0 4.0 0.00 0.00 0.00 55 1013.3
20211022230150 83 165 1.0 4.0 0.00 0.00 0.00 55 1013.3
20211022225652 83 118 1.0 4.0 0.00 0.00 0.00 54 1013.3
20211022225150 84 140 1.0 4.0 0.00 0.00 0.00 54 1013.3
20211022224658 84 143 1.0 3.0 0.00 0.00 0.00 53 1013.4
20211022224207 84 143 0.0 7.0 0.00 0.00 0.00 52 1013.4
20211022223653 85 154 1.0 7.0 0.00 0.00 0.00 51 1013.5
20211022223146 85 141 1.0 7.0 0.00 0.00 0.00 50 1013.5
20211022222656 85 191 1.0 7.0 0.00 0.00 0.00 49 1013.5
20211022222202 86 158 1.0 6.0 0.00 0.00 0.00 49 1013.5
20211022221650 86 133 1.0 6.0 0.00 0.00 0.00 48 1013.5
20211022221131 87 143 1.0 6.0 0.00 0.00 0.00 48 1013.5
20211022220635 87 188 1.0 6.0 0.00 0.00 0.00 47 1013.5
20211022220143 88 210 2.0 0.0 0.00 0.00 0.00 47 1013.6
20211022215629 88 209 2.0 7.0 0.00 0.00 0.00 46 1013.6
20211022215134 88 194 1.0 7.0 0.00 0.00 0.00 46 1013.7
20211022214629 89 192 2.0 7.0 0.00 0.00 0.00 45 1013.7
20211022214132 89 229 1.0 7.0 0.00 0.00 0.00 45 1013.7
20211022213623 89 214 0.0 6.0 0.00 0.00 0.00 45 1013.8
20211022213114 89 221 1.0 6.0 0.00 0.00 0.00 45 1013.8
20211022212602 89 222 2.0 6.0 0.00 0.00 0.00 44 1013.9
20211022212058 89 207 1.0 6.0 0.00 0.00 0.00 44 1013.9
20211022211544 89 221 1.0 4.0 0.00 0.00 0.00 44 1013.9
20211022211047 89 115 1.0 4.0 0.00 0.00 0.00 43 1013.9
20211022210547 89 154 1.0 6.0 0.00 0.00 0.00 42 1014.0
20211022210044 89 119 1.0 6.0 0.00 0.00 0.00 42 1014.0
20211022205548 89 131 1.0 6.0 0.00 0.00 0.00 43 1014.0
20211022205051 89 63 1.0 6.0 0.00 0.00 0.00 43 1014.1
20211022204544 89 169 2.0 5.0 0.00 0.00 0.00 44 1014.1
20211022204041 89 187 1.0 5.0 0.00 0.00 0.00 44 1014.2
20211022203526 88 186 1.0 3.0 0.00 0.00 0.00 43 1014.2
20211022203012 89 205 1.0 3.0 0.00 0.00 0.00 44 1014.2
20211022202515 89 227 1.0 7.0 0.00 0.00 0.00 44 1014.3
20211022202003 89 96 1.0 7.0 0.00 0.00 0.00 43 1014.3
20211022201449 88 216 2.0 7.0 0.00 0.00 0.00 44 1014.4
20211022200949 88 217 1.0 6.0 0.00 0.00 0.00 43 1014.5
20211022200448 88 216 1.0 6.0 0.00 0.00 0.00 45 1014.6
20211022195937 88 164 1.0 6.0 0.00 0.00 0.00 45 1014.7
20211022195433 87 217 1.0 3.0 0.00 0.00 0.00 44 1014.8
20211022194939 87 216 1.0 3.0 0.00 0.00 0.00 43 1014.9
20211022194431 87 217 1.0 3.0 0.00 0.00 0.00 43 1015.0
20211022193929 87 217 1.0 4.0 0.00 0.00 0.00 42 1015.1
20211022193438 87 217 1.0 4.0 0.00 0.00 0.00 44 1015.1
20211022192948 87 217 1.0 4.0 0.00 0.00 0.00 43 1015.3
20211022192454 87 213 1.0 4.0 0.00 0.00 0.00 42 1015.4
20211022191959 86 280 0.0 3.0 0.00 0.00 0.00 41 1015.5
20211022191453 86 279 0.0 0.0 0.00 0.00 0.00 42 1015.5
20211022190933 86 282 0.0 0.0 0.00 0.00 0.00 42 1015.8
20211022190436 86 274 0.0 4.0 0.00 0.00 0.00 40 1015.9
20211022185928 86 274 0.0 4.0 0.00 0.00 0.00 41 1015.9
20211022185410 86 274 1.0 4.0 0.00 0.00 0.00 41 1016.0
20211022184850 85 274 0.0 4.0 0.00 0.00 0.00 42 1016.2
20211022184349 85 272 0.0 0.0 0.00 0.00 0.00 43 1016.3
20211022183852 85 271 1.0 4.0 0.00 0.00 0.00 41 1016.5
20211022183335 85 271 1.0 4.0 0.00 0.00 0.00 41 1016.6
20211022182824 85 271 0.0 3.0 0.00 0.00 0.00 41 1016.8
20211022182315 85 271 1.0 5.0 0.00 0.00 0.00 41 1016.9
20211022181807 85 271 2.0 5.0 0.00 0.00 0.00 41 1017.0
20211022181300 86 271 2.0 5.0 0.00 0.00 0.00 38 1017.1
20211022180806 86 271 1.0 5.0 0.00 0.00 0.00 40 1017.2
20211022180305 86 218 1.0 3.0 0.00 0.00 0.00 39 1017.3
20211022175748 85 159 0.0 4.0 0.00 0.00 0.00 39 1017.4
20211022175237 85 136 1.0 4.0 0.00 0.00 0.00 37 1017.5
20211022174725 85 214 1.0 4.0 0.00 0.00 0.00 38 1017.5
20211022174214 85 206 0.0 4.0 0.00 0.00 0.00 39 1017.6
20211022173659 84 115 1.0 5.0 0.00 0.00 0.00 39 1017.8
20211022173146 84 134 2.0 5.0 0.00 0.00 0.00 38 1017.9
20211022172644 84 142 1.0 7.0 0.00 0.00 0.00 38 1018.0
20211022172151 83 203 1.0 7.0 0.00 0.00 0.00 38 1018.1
20211022171638 83 169 1.0 7.0 0.00 0.00 0.00 40 1018.2
20211022171148 83 117 1.0 7.0 0.00 0.00 0.00 38 1018.3
20211022170651 82 108 1.0 5.0 0.00 0.00 0.00 39 1018.3
20211022170141 82 156 1.0 4.0 0.00 0.00 0.00 40 1018.4
20211022165626 81 157 1.0 6.0 0.00 0.00 0.00 41 1018.5
20211022165108 81 165 2.0 6.0 0.00 0.00 0.00 40 1018.4
20211022164616 80 180 2.0 6.0 0.00 0.00 0.00 41 1018.5
20211022164059 80 195 2.0 6.0 0.00 0.00 0.00 41 1018.4
20211022163607 79 195 2.0 5.0 0.00 0.00 0.00 43 1018.5
20211022163109 78 138 2.0 5.0 0.00 0.00 0.00 43 1018.5
20211022162558 78 136 1.0 6.0 0.00 0.00 0.00 42 1018.6
20211022162052 77 211 1.0 6.0 0.00 0.00 0.00 44 1018.7
20211022161540 75 165 2.0 6.0 0.00 0.00 0.00 45 1018.8
20211022161042 75 181 2.0 6.0 0.00 0.00 0.00 46 1018.9
20211022160543 74 122 1.0 5.0 0.00 0.00 0.00 45 1019.0
20211022160039 73 112 1.0 5.0 0.00 0.00 0.00 45 1019.0
20211022155520 73 97 1.0 0.0 0.00 0.00 0.00 47 1019.0
20211022155003 72 122 2.0 4.0 0.00 0.00 0.00 48 1019.1
20211022154453 71 140 1.0 9.0 0.00 0.00 0.00 49 1019.1
20211022153937 71 134 1.0 9.0 0.00 0.00 0.00 51 1019.1
20211022153427 70 103 2.0 9.0 0.00 0.00 0.00 51 1019.1
20211022152931 69 113 2.0 9.0 0.00 0.00 0.00 53 1019.1
20211022152428 68 118 2.0 6.0 0.00 0.00 0.00 55 1019.2
20211022151936 67 102 1.0 6.0 0.00 0.00 0.00 57 1019.2
20211022151426 67 156 2.0 6.0 0.00 0.00 0.00 58 1019.2
20211022150907 66 134 1.0 5.0 0.00 0.00 0.00 59 1019.4
20211022150412 65 165 1.0 5.0 0.00 0.00 0.00 61 1019.4
20211022145921 64 135 0.0 4.0 0.00 0.00 0.00 63 1019.5
20211022145423 64 126 0.0 4.0 0.00 0.00 0.00 66 1019.5
20211022144912 63 127 1.0 0.0 0.00 0.00 0.00 66 1019.5
20211022144400 63 127 1.0 4.0 0.00 0.00 0.00 67 1019.5
20211022143857 63 134 0.0 6.0 0.00 0.00 0.00 68 1019.5
20211022143344 62 134 1.0 6.0 0.00 0.00 0.00 68 1019.5
20211022142852 62 131 1.0 6.0 0.00 0.00 0.00 70 1019.4
20211022142357 61 160 0.0 6.0 0.00 0.00 0.00 70 1019.3
20211022141841 61 112 0.0 5.0 0.00 0.00 0.00 70 1019.2
20211022141349 60 108 0.0 4.0 0.00 0.00 0.00 71 1019.1
20211022140849 60 109 0.0 4.0 0.00 0.00 0.00 72 1019.1
20211022140350 60 109 0.0 4.0 0.00 0.00 0.00 73 1019.1
20211022135839 60 110 0.0 0.0 0.00 0.00 0.00 74 1019.2
20211022135339 60 122 0.0 0.0 0.00 0.00 0.00 75 1019.2
20211022134849 60 123 0.0 0.0 0.00 0.00 0.00 75 1019.3
20211022134351 59 123 0.0 0.0 0.00 0.00 0.00 73 1019.2
20211022133855 59 123 1.0 4.0 0.00 0.00 0.00 74 1018.8
20211022133357 59 124 0.0 3.0 0.00 0.00 0.00 75 1018.7
20211022132848 59 124 0.0 4.0 0.00 0.00 0.00 75 1018.6
20211022132338 59 126 0.0 4.0 0.00 0.00 0.00 75 1018.5
20211022131847 59 127 0.0 3.0 0.00 0.00 0.00 76 1018.5
20211022131339 58 132 0.0 3.0 0.00 0.00 0.00 76 1018.4
20211022130824 58 129 0.0 2.0 0.00 0.00 0.00 76 1018.5
20211022130308 58 127 0.0 4.0 0.00 0.00 0.00 76 1018.4
20211022125749 58 123 0.0 4.0 0.00 0.00 0.00 76 1018.2
20211022125246 58 118 0.0 3.0 0.00 0.00 0.00 76 1018.3
20211022124749 58 117 0.0 2.0 0.00 0.00 0.00 75 1018.2
20211022124238 58 117 0.0 2.0 0.00 0.00 0.00 75 1018.3
20211022123738 58 117 0.0 0.0 0.00 0.00 0.00 75 1018.3
20211022123239 58 117 0.0 2.0 0.00 0.00 0.00 75 1018.2
20211022122725 58 116 0.0 0.0 0.00 0.00 0.00 74 1018.3
20211022122216 58 116 0.0 1.0 0.00 0.00 0.00 74 1018.3
20211022121704 59 116 0.0 0.0 0.00 0.00 0.00 73 1018.4
20211022121146 59 116 0.0 0.0 0.00 0.00 0.00 73 1018.4
20211022120645 59 116 0.0 1.0 0.00 0.00 0.00 73 1018.3
20211022120147 59 116 0.0 4.0 0.00 0.00 0.00 72 1018.3
20211022115629 59 118 0.0 4.0 0.00 0.00 0.00 73 1018.2
20211022115127 59 109 0.0 2.0 0.00 0.00 0.00 73 1018.2
20211022114625 59 108 0.0 1.0 0.00 0.00 0.00 72 1018.2
20211022114105 59 108 0.0 1.0 0.00 0.00 0.00 71 1018.3
20211022113550 59 106 0.0 2.0 0.00 0.00 0.00 71 1018.3
20211022113054 59 107 0.0 2.0 0.00 0.00 0.00 71 1018.1
20211022112603 58 106 0.0 3.0 0.00 0.00 0.00 71 1018.1
20211022112050 58 107 0.0 3.0 0.00 0.00 0.00 71 1018.1
20211022111544 58 105 0.0 4.0 0.00 0.00 0.00 71 1017.9
20211022111048 58 101 1.0 4.0 0.00 0.00 0.00 72 1017.8
20211022110545 58 98 1.0 4.0 0.00 0.00 0.00 72 1017.8
20211022110047 58 97 0.0 4.0 0.00 0.00 0.00 72 1017.8
20211022105535 58 109 0.0 3.0 0.00 0.00 0.00 73 1017.7
20211022105023 58 113 0.0 2.0 0.00 0.00 0.00 73 1017.7
20211022104518 58 112 0.0 2.0 0.00 0.00 0.00 73 1017.7
20211022104025 59 113 0.0 0.0 0.00 0.00 0.00 74 1017.7
20211022103508 59 113 0.0 0.0 0.00 0.00 0.00 73 1017.8
20211022103013 59 113 0.0 0.0 0.00 0.00 0.00 73 1017.8
20211022102505 59 126 0.0 0.0 0.00 0.00 0.00 73 1017.9
20211022102006 59 123 0.0 0.0 0.00 0.00 0.00 71 1017.9
20211022101458 59 121 0.0 0.0 0.00 0.00 0.00 71 1017.9
20211022100955 59 120 0.0 0.0 0.00 0.00 0.00 71 1017.9
20211022100502 60 120 0.0 0.0 0.00 0.00 0.00 70 1018.0
20211022100007 60 120 0.0 0.0 0.00 0.00 0.00 70 1017.9
20211022095508 60 120 0.0 0.0 0.00 0.00 0.00 70 1017.9
20211022095016 60 119 0.0 0.0 0.00 0.00 0.00 69 1017.9
20211022094509 60 117 0.0 5.0 0.00 0.00 0.00 69 1017.8
20211022094018 59 85 1.0 5.0 0.00 0.00 0.00 69 1017.7
20211022093518 59 104 1.0 5.0 0.00 0.00 0.00 69 1017.6
20211022093026 59 104 1.0 5.0 0.00 0.00 0.00 70 1017.7
20211022092522 59 115 0.0 4.0 0.00 0.00 0.00 70 1017.7
20211022092011 59 115 0.0 4.0 0.00 0.00 0.00 71 1017.8
20211022091504 59 115 0.0 4.0 0.00 0.00 0.00 71 1017.8
20211022090954 59 82 0.0 2.0 0.00 0.00 0.00 72 1017.8
20211022090452 59 79 0.0 3.0 0.00 0.00 0.00 73 1017.8
20211022085941 59 81 0.0 0.0 0.00 0.00 0.00 73 1017.9
20211022085445 59 81 0.0 1.0 0.00 0.00 0.00 72 1017.9
20211022084933 59 83 0.0 0.0 0.00 0.00 0.00 72 1018.0
20211022084438 59 88 0.0 2.0 0.00 0.00 0.00 73 1018.0
20211022083932 59 86 0.0 0.0 0.00 0.00 0.00 74 1018.0
20211022083415 59 86 0.0 0.0 0.00 0.00 0.00 73 1018.1
20211022082906 59 84 0.0 0.0 0.00 0.00 0.00 73 1018.2
20211022082401 60 84 0.0 0.0 0.00 0.00 0.00 73 1018.4
20211022081843 60 82 0.0 0.0 0.00 0.00 0.00 72 1018.5
20211022081330 60 88 0.0 0.0 0.00 0.00 0.00 72 1018.6
20211022080826 60 81 0.0 0.0 0.00 0.00 0.00 72 1018.6
20211022080333 60 79 0.0 0.0 0.00 0.00 0.00 72 1018.5
20211022075832 60 81 0.0 0.0 0.00 0.00 0.00 71 1018.5
20211022075322 60 84 0.0 0.0 0.00 0.00 0.00 70 1018.5
20211022074832 60 78 0.0 0.0 0.00 0.00 0.00 70 1018.5
20211022074328 61 75 0.0 0.0 0.00 0.00 0.00 70 1018.4
20211022073811 61 75 0.0 0.0 0.00 0.00 0.00 70 1018.5
20211022073317 61 74 0.0 0.0 0.00 0.00 0.00 71 1018.6
20211022072758 61 75 0.0 0.0 0.00 0.00 0.00 70 1018.5
20211022072255 61 75 0.0 2.0 0.00 0.00 0.00 69 1018.5
20211022071802 61 75 0.0 2.0 0.00 0.00 0.00 68 1018.4
20211022071305 61 73 0.0 2.0 0.00 0.00 0.00 67 1018.4
20211022070754 61 69 0.0 0.0 0.00 0.00 0.00 68 1018.4
20211022070243 61 70 0.0 1.0 0.00 0.00 0.00 68 1018.4
20211022065730 62 70 0.0 0.0 0.00 0.00 0.00 67 1018.4
20211022065213 62 70 0.0 0.0 0.00 0.00 0.00 67 1018.4
20211022064723 62 70 0.0 0.0 0.00 0.00 0.00 67 1018.5
20211022064230 62 71 0.0 0.0 0.00 0.00 0.00 67 1018.5
20211022063733 62 73 0.0 0.0 0.00 0.00 0.00 67 1018.5
20211022063228 62 73 0.0 0.0 0.00 0.00 0.00 66 1018.5
20211022062726 62 73 0.0 3.0 0.00 0.00 0.00 66 1018.5
20211022062233 62 70 0.0 3.0 0.00 0.00 0.00 65 1018.6
20211022061717 62 77 0.0 3.0 0.00 0.00 0.00 65 1018.5
20211022061206 63 80 0.0 1.0 0.00 0.00 0.00 66 1018.6
20211022060710 63 80 0.0 1.0 0.00 0.00 0.00 66 1018.7
20211022060217 63 80 0.0 0.0 0.00 0.00 0.00 66 1018.8
20211022055703 63 80 0.0 0.0 0.00 0.00 0.00 65 1018.8
20211022055147 63 82 0.0 0.0 0.00 0.00 0.00 66 1018.8
20211022054648 63 82 0.0 1.0 0.00 0.00 0.00 65 1018.9
20211022054149 63 80 0.0 0.0 0.00 0.00 0.00 65 1019.0
20211022053629 64 82 0.0 1.0 0.00 0.00 0.00 64 1019.0
20211022053129 64 80 0.0 1.0 0.00 0.00 0.00 63 1019.1
20211022052615 64 77 0.0 2.0 0.00 0.00 0.00 64 1019.0
20211022052101 64 77 0.0 2.0 0.00 0.00 0.00 63 1019.1
20211022051544 64 77 0.0 3.0 0.00 0.00 0.00 64 1019.2
20211022051041 64 76 0.0 3.0 0.00 0.00 0.00 63 1019.2
20211022050545 64 84 0.0 3.0 0.00 0.00 0.00 63 1019.1
20211022050046 64 89 0.0 3.0 0.00 0.00 0.00 62 1019.1
20211022045537 65 91 0.0 3.0 0.00 0.00 0.00 63 1019.2
20211022045022 65 92 0.0 3.0 0.00 0.00 0.00 62 1019.1
20211022044505 65 104 0.0 2.0 0.00 0.00 0.00 62 1019.2
20211022043957 65 105 0.0 2.0 0.00 0.00 0.00 61 1019.2
20211022043443 65 105 0.0 1.0 0.00 0.00 0.00 62 1019.3
20211022042934 65 105 0.0 1.0 0.00 0.00 0.00 61 1019.3
20211022042414 66 106 0.0 1.0 0.00 0.00 0.00 61 1019.2
20211022041925 66 108 0.0 1.0 0.00 0.00 0.00 61 1019.3
20211022041433 66 109 0.0 3.0 0.00 0.00 0.00 61 1019.3
20211022040941 66 108 1.0 3.0 0.00 0.00 0.00 60 1019.4
20211022040431 66 113 0.0 3.0 0.00 0.00 0.00 60 1019.2
20211022035941 66 58 0.0 3.0 0.00 0.00 0.00 59 1019.3
20211022035434 66 70 0.0 3.0 0.00 0.00 0.00 60 1019.2
20211022034919 66 62 1.0 5.0 0.00 0.00 0.00 59 1019.2
20211022034403 66 65 1.0 5.0 0.00 0.00 0.00 59 1019.2
20211022033913 66 89 1.0 5.0 0.00 0.00 0.00 60 1019.1
20211022033355 66 36 0.0 5.0 0.00 0.00 0.00 60 1019.1
20211022032856 67 72 0.0 4.0 0.00 0.00 0.00 59 1019.1
20211022032338 67 68 0.0 0.0 0.00 0.00 0.00 60 1019.1
20211022031847 67 70 0.0 4.0 0.00 0.00 0.00 60 1019.2
20211022031349 67 71 0.0 2.0 0.00 0.00 0.00 60 1019.2
20211022030849 67 71 0.0 3.0 0.00 0.00 0.00 60 1019.2
20211022030331 67 75 0.0 3.0 0.00 0.00 0.00 60 1019.2
20211022025835 67 77 0.0 3.0 0.00 0.00 0.00 60 1019.1
20211022025333 67 89 0.0 3.0 0.00 0.00 0.00 59 1019.1
20211022024816 67 71 0.0 2.0 0.00 0.00 0.00 60 1019.0
20211022024256 67 73 0.0 3.0 0.00 0.00 0.00 60 1019.0
20211022023802 67 48 0.0 3.0 0.00 0.00 0.00 61 1019.0
20211022023244 67 46 0.0 3.0 0.00 0.00 0.00 61 1018.9
20211022022747 67 44 0.0 3.0 0.00 0.00 0.00 62 1018.9
20211022022230 67 44 0.0 3.0 0.00 0.00 0.00 62 1019.0